147  
ASUS44 KHUN 240710  
RWRHUN  
 
WEATHER ROUNDUP FOR THE TENNESSEE VALLEY  
NATIONAL WEATHER SERVICE HUNTSVILLE AL  
200 AM CDT FRI MAR 24 2017  
 
ALZ001>004-240800-  
NORTHWEST ALABAMA  
 
CITY SKY/WX TMP DP RH WIND PRES REMARKS
 
COURTLAND HCN N/A 63 N/A N/A S14 N/A  
RUSSELLVILLE N/A 61 N/A N/A MISG N/A  
SHOALS AIRPORT PTCLDY 62 51 67 S16 30.25R  
SHOALS TVA RES N/A 63 N/A N/A MISG N/A  

 
 
ALZ005>007-016-240800-  
NORTH CENTRAL ALABAMA  
 
CITY SKY/WX TMP DP RH WIND PRES REMARKS
 
CULLMAN AG STN N/A 61 N/A N/A SE6 N/A  
DECATUR AP PTCLDY 59 50 72 SE15 30.28S  
HUNTSVILLE AP PTCLDY 61 49 64 SE14 30.28S  
MERIDIANVILLE PTCLDY 59 45 58 SE14G22 30.29S  
REDSTONE ARSN PTCLDY 60 48 66 S10 30.27S  
VINEMONT AP PTSUNNY 59 48 67 SE6 30.31S  

 
 
ALZ008>010-240800-  
NORTHEAST ALABAMA  
 
CITY SKY/WX TMP DP RH WIND PRES REMARKS
 
ALBERTVILLE CLOUDY 59 52 77 SE8G17 30.30F  
FORT PAYNE MOCLDY 57 37 47 W6 30.33S  
SCOTTSBORO AP CLOUDY 59 43 55 SW9G17 30.32F  
SCOTTSBORO HCN N/A 61 N/A N/A MISG N/A  
VALLEY HEAD N/A 59 N/A N/A MISG N/A  

 
 
TNZ076-096-097-240800-  
SOUTHEASTERN MIDDLE TENNESSEE  
 
CITY SKY/WX TMP DP RH WIND PRES REMARKS
 
TULLAHOMA CLEAR 55 39 54 S9 30.29R  
WINCHESTER CLEAR 57 43 58 SE17 30.28S  

 
   
..SURROUNDING SITES
 
 
 
CITY SKY/WX TMP DP RH WIND PRES REMARKS
 
ATLANTA MOCLDY 59 42 53 SE10 30.40S  
ANNISTON CLOUDY 62 49 62 E8 30.34F  
BIRMINGHAM CLOUDY 63 50 62 SE14 30.32S  
CHATTANOOGA CLOUDY 59 34 39 S12G18 30.36S  
DALTON CLOUDY 57 36 44 SE7 30.38R  
GADSDEN CLOUDY 62 49 62 SE8 30.33F  
GOLDEN TRNGL CLOUDY N/A N/A N/A SE17 30.18S  
HALEYVILLE CLOUDY 61 51 70 S13G23 30.27S  
JACKSON TN CLEAR 68 55 63 S8G22 30.13S  
MEMPHIS CLEAR 70 55 59 S15G21 30.11R  
NASHVILLE CLEAR 60 44 55 S14 30.24R  
OXFORD MS FAIR 66 55 68 S13G18 30.17S  
ROME CLOUDY 60 36 40 SE8 30.36F  
SAVANNAH MOCLDY 64 54 68 S14 30.18S  
TUPELO PTCLDY 66 55 67 SE13G21 30.20R  
TUSCALOOSA CLOUDY 65 53 65 SE12G18 30.27F  

 
   
..GULF COAST WEATHER
 
 
 
CITY SKY/WX TMP DP RH WIND PRES REMARKS
 
GULFPORT CLOUDY 70 67 90 SE16 30.22F  
PASCAGOULA CLOUDY 69 64 84 SE12 30.24F  
MOBILE CLOUDY 69 61 75 SE21 30.25F  
GULF SHORES CLOUDY 68 64 88 SE18G28 30.27S  
PENSACOLA CLOUDY 69 60 73 SE22G30 30.27S  
DESTIN PTCLDY 69 61 75 SE20G25 30.30S  
PANAMA CITY PTCLDY 64 56 75 E9 30.32S  
APPALACHICOLA CLEAR 65 59 81 E13G18 30.32S  

 
 
 
 
CLICK HERE TO GO TO PREVIOUS BULLETINS.

The Nexlab AL Page
The Nexlab TN Page Main Text Page